Weather reports worldwide

Advertisment
Zadar/Zemunik, Croatia (14431): temperature & dewpoint: 17.05.2018 03:00:00 - 23.05.2018 03:00:00 (CEST)Zadar/Zemunik, Croatia (14431): wind speed: 17.05.2018 03:00:00 - 23.05.2018 03:00:00 (CEST)Zadar/Zemunik, Croatia (14431): wind direction: 17.05.2018 03:00:00 - 23.05.2018 03:00:00 (CEST)Zadar/Zemunik, Croatia (14431): reduced air pressure: 17.05.2018 03:00:00 - 23.05.2018 03:00:00 (CEST)Zadar/Zemunik, Croatia (14431): visibility: 17.05.2018 03:00:00 - 23.05.2018 03:00:00 (CEST)
Date & Time tt [°C] td [°C] ff [km/h] ff [kn] dd ppp [hPa] vv [km]
23.05.2018 03:00:00 17,0 16,0 8 4 ENE - 10
23.05.2018 02:00:00 16,6 15,2 4 2 ESE 1015,5 15
23.05.2018 01:00:00 17,0 16,0 4 2 - - 10
23.05.2018 00:00:00 18,0 17,0 5 3 SE - 10
22.05.2018 23:00:00 18,7 16,9 7 4 E 1016,5 15
22.05.2018 22:00:00 19,0 17,0 8 4 E - 10
22.05.2018 21:00:00 20,0 16,0 11 6 SSE - 10
22.05.2018 20:00:00 21,6 15,9 14 8 S 1015,7 25
22.05.2018 19:00:00 23,0 16,0 16 9 S - 10
22.05.2018 18:00:00 24,0 14,0 21 11 SSE - 10
22.05.2018 17:00:00 24,5 14,8 14 8 S 1014,1 25
22.05.2018 16:00:00 24,0 16,0 16 9 SSE - 10
22.05.2018 15:00:00 24,0 16,0 18 10 S - 10
22.05.2018 14:00:00 23,9 16,0 22 12 S 1014,9 10
22.05.2018 13:00:00 24,0 14,0 21 11 S - 10
22.05.2018 12:00:00 23,0 15,0 22 12 S - 10
22.05.2018 11:00:00 23,8 15,4 18 10 S 1014,4 10
22.05.2018 10:00:00 23,0 16,0 21 11 S - 10
22.05.2018 09:00:00 21,0 17,0 18 10 SE - 10
22.05.2018 08:00:00 20,4 15,9 14 8 ESE 1013,4 30
22.05.2018 07:00:00 18,0 14,0 9 5 SE - 10
22.05.2018 06:00:00 17,0 14,0 9 5 SE - 10
22.05.2018 05:00:00 16,4 13,6 9 5 SE 1012,4 10
22.05.2018 04:00:00 17,0 14,0 9 5 ESE - 10
22.05.2018 03:00:00 16,0 14,0 9 5 SE - 10
22.05.2018 02:00:00 15,5 13,5 11 6 SE 1012,2 20
22.05.2018 01:00:00 16,0 14,0 9 5 SE - 10
22.05.2018 00:00:00 17,0 14,0 8 4 SE - 10
21.05.2018 23:00:00 18,0 14,9 7 4 E 1012,7 30
21.05.2018 22:00:00 20,0 14,0 11 6 E - 10
21.05.2018 21:00:00 20,0 14,0 4 2 - - 10
21.05.2018 20:00:00 22,0 15,4 7 4 NNW 1012,0 30
21.05.2018 19:00:00 25,0 14,0 8 4 - - 10
21.05.2018 18:00:00 25,0 13,0 15 8 W - 10
21.05.2018 17:00:00 26,1 13,2 7 4 SSW 1011,3 30
21.05.2018 16:00:00 27,0 12,0 5 3 - - 10
21.05.2018 15:00:00 26,0 14,0 11 6 E - 10
21.05.2018 14:00:00 25,8 12,3 7 4 ENE 1013,1 30
21.05.2018 13:00:00 26,0 12,0 13 7 E - 10
21.05.2018 12:00:00 24,0 12,0 13 7 ENE - 10
21.05.2018 11:00:00 22,2 11,7 11 6 E 1013,9 10
21.05.2018 10:00:00 24,0 11,0 16 9 E - 10
21.05.2018 09:00:00 23,0 11,0 16 9 E - 10
21.05.2018 08:00:00 21,0 10,0 14 8 E 1013,8 30
21.05.2018 07:00:00 20,0 10,0 15 8 ENE - 10
21.05.2018 06:00:00 20,0 9,0 13 7 E - 10
21.05.2018 05:00:00 19,6 8,6 15 8 E 1013,1 10
21.05.2018 04:00:00 20,0 9,0 16 9 E - 10
21.05.2018 03:00:00 20,0 9,0 15 8 ENE - 10
21.05.2018 02:00:00 19,4 9,1 14 8 ENE 1013,5 30
21.05.2018 01:00:00 20,0 9,0 13 7 ENE - 10
21.05.2018 00:00:00 20,0 10,0 15 8 ENE - 10
20.05.2018 23:00:00 19,6 10,2 13 7 E 1014,0 10
20.05.2018 22:00:00 20,0 11,0 11 6 ENE - 10
20.05.2018 21:00:00 19,0 12,0 9 5 ENE - 10
20.05.2018 20:00:00 21,0 14,2 7 4 NE 1013,6 20
20.05.2018 19:00:00 23,0 15,0 5 3 NNE - 10
20.05.2018 18:00:00 23,0 14,0 15 8 N - 10
20.05.2018 17:00:00 22,7 13,1 7 4 WSW 1013,8 30
20.05.2018 16:00:00 25,0 13,0 8 4 NE - 10
20.05.2018 15:00:00 27,0 10,0 13 7 ENE - 10
20.05.2018 14:00:00 27,0 10,5 14 8 NE 1014,4 30
20.05.2018 13:00:00 26,0 12,0 15 8 ENE - 10
20.05.2018 12:00:00 25,0 11,0 13 7 E - 10
20.05.2018 11:00:00 24,6 9,6 15 8 E 1015,4 10
20.05.2018 10:00:00 24,0 10,0 16 9 ENE - 10
20.05.2018 09:00:00 23,0 11,0 16 9 ENE - 10
20.05.2018 08:00:00 21,2 10,8 13 7 ENE 1015,3 10
20.05.2018 07:00:00 19,0 10,0 11 6 ENE - 10
20.05.2018 06:00:00 18,0 10,0 11 6 E - 10
20.05.2018 05:00:00 17,9 9,5 11 6 E 1014,7 30
20.05.2018 04:00:00 18,0 9,0 13 7 ENE - 10
20.05.2018 03:00:00 18,0 9,0 9 5 ENE - 10
20.05.2018 02:00:00 17,5 9,8 11 6 E 1015,1 30
20.05.2018 01:00:00 17,0 10,0 11 6 ENE - 10
20.05.2018 00:00:00 17,0 11,0 9 5 ENE - 10
19.05.2018 23:00:00 15,8 10,9 7 4 E 1014,8 30
19.05.2018 22:00:00 16,0 12,0 5 3 ESE - 10
19.05.2018 21:00:00 17,0 11,0 8 4 N - 10
19.05.2018 20:00:00 20,8 11,2 11 6 NW 1013,9 30
19.05.2018 19:00:00 23,0 11,0 18 10 NW - 10
19.05.2018 18:00:00 23,0 12,0 22 12 WNW - 10
19.05.2018 17:00:00 24,4 11,4 22 12 NW 1013,9 30
19.05.2018 16:00:00 25,0 12,0 18 10 NW - 10
19.05.2018 15:00:00 25,0 12,0 15 8 - - 10
19.05.2018 14:00:00 24,3 12,0 7 4 NW 1014,8 30
19.05.2018 13:00:00 25,0 11,0 11 6 - - 10
19.05.2018 12:00:00 24,0 10,0 5 3 - - 10
19.05.2018 11:00:00 23,9 10,5 7 4 E 1015,4 30
19.05.2018 10:00:00 23,0 10,0 5 3 - - 10
19.05.2018 09:00:00 22,0 11,0 11 6 ENE - 10
19.05.2018 08:00:00 18,7 12,7 4 2 - 1014,8 10
19.05.2018 07:00:00 14,0 13,0 5 3 ENE - 10
19.05.2018 06:00:00 10,0 9,0 4 2 - - 10
19.05.2018 05:00:00 9,7 9,1 4 2 ESE 1014,8 3,0
19.05.2018 04:00:00 11,0 10,0 2 1 - - 10
19.05.2018 03:00:00 10,0 10,0 0 0 N - 10
19.05.2018 02:00:00 11,7 11,0 5 3 SE 1015,5 10
19.05.2018 01:00:00 12,0 11,0 5 3 SE - 10
19.05.2018 00:00:00 13,0 12,0 4 2 SE - 10
18.05.2018 23:00:00 14,1 12,5 5 3 W 1015,8 10
18.05.2018 22:00:00 15,0 12,0 8 4 WSW - 10
18.05.2018 21:00:00 15,0 12,0 8 4 W - 10
18.05.2018 20:00:00 17,1 13,3 7 4 NW 1015,5 30
18.05.2018 19:00:00 19,0 13,0 15 8 NW - 10
18.05.2018 18:00:00 21,0 12,0 21 11 WNW - 10
18.05.2018 17:00:00 21,6 9,9 13 7 NW 1015,2 10
18.05.2018 16:00:00 22,0 12,0 16 9 WNW - 10
18.05.2018 15:00:00 22,0 12,0 16 9 W - 10
18.05.2018 14:00:00 21,8 10,4 14 8 WSW 1016,1 30
18.05.2018 13:00:00 21,0 11,0 13 7 W - 10
18.05.2018 12:00:00 21,0 11,0 11 6 NW - 10
18.05.2018 11:00:00 21,1 10,9 7 4 WSW 1016,5 30
18.05.2018 10:00:00 21,0 11,0 9 5 WNW - 10
18.05.2018 09:00:00 20,0 12,0 5 3 - - 10
18.05.2018 08:00:00 16,9 13,9 4 2 SE 1016,8 30
18.05.2018 07:00:00 14,0 13,0 5 3 SE - 10
18.05.2018 06:00:00 11,0 11,0 4 2 E - 10
18.05.2018 05:00:00 10,9 10,3 7 4 SE 1016,6 20
18.05.2018 04:00:00 11,0 10,0 8 4 SSE - 10
18.05.2018 03:00:00 10,0 10,0 2 1 - - 10
18.05.2018 02:00:00 10,8 10,1 4 2 E 1016,9 20
18.05.2018 01:00:00 11,0 10,0 5 3 ESE - 10
18.05.2018 00:00:00 12,0 11,0 8 4 SE - 10
17.05.2018 23:00:00 12,2 11,0 0 0 N 1017,5 10
17.05.2018 22:00:00 14,0 13,0 4 2 - - 10
17.05.2018 21:00:00 15,0 13,0 8 4 NE - 10
17.05.2018 20:00:00 17,8 13,2 7 4 ENE 1016,3 30
17.05.2018 19:00:00 19,0 13,0 4 2 - - 10
17.05.2018 18:00:00 20,0 13,0 11 6 SE - 10
17.05.2018 17:00:00 19,8 10,9 14 8 SSW 1015,9 30
17.05.2018 16:00:00 21,0 10,0 13 7 SW - 10
17.05.2018 15:00:00 21,0 11,0 9 5 - - 10
17.05.2018 14:00:00 19,8 11,5 11 6 SSW 1016,2 30
17.05.2018 13:00:00 20,0 12,0 13 7 W - 10
17.05.2018 12:00:00 19,0 10,0 15 8 SW - 10
17.05.2018 11:00:00 19,4 10,5 11 6 SSE 1016,5 10
17.05.2018 10:00:00 18,0 11,0 13 7 SSE - 10
17.05.2018 09:00:00 17,0 12,0 11 6 SE - 10
17.05.2018 08:00:00 14,5 11,1 11 6 SE 1016,2 10
17.05.2018 07:00:00 12,0 10,0 8 4 SE - 10
17.05.2018 06:00:00 9,0 8,0 9 5 ESE - 10
17.05.2018 05:00:00 9,0 8,2 9 5 SE 1015,5 10
17.05.2018 04:00:00 10,0 9,0 9 5 ESE - 10
17.05.2018 03:00:00 10,0 9,0 8 4 ESE - 10

tt = temperature
td = dewpoint
ff = wind speed
dd = wind direction
ppp = reduced air pressure
vv = visibility

Next stations